Location: Ash Shall?l al Awwal
(24.0167°N, 32.8667°E)
Time: 18:51:02
(UTC+00:00)

Cosmos 2181 Rocket - Pass Details

Date: 02 March 2021
Orbit: 951 x 1015 km, 82.9° (Epoch: 09 April)

Event Time Altitude Azimuth Distance (km) Brightness Sun altitude
Rises 16:14:33 0° 352° (N) 3,742 7.1 -6.0°
Reaches altitude 10° 16:17:06 10° 351° (N) 2,785 6.5 -6.6°
Maximum altitude 16:23:29 75° 267° (W) 1,031 4.3 -8.0°
Drops below altitude 10° 16:29:46 10° 183° (S) 2,736 6.4 -9.5°
Sets 16:32:15 0° 181° (S) 3,673 7.1 -10.0°
